TimeEST,TemperatureF,Dew PointF,Humidity,Sea Level PressureIn,VisibilityMPH,Wind Direction,Wind SpeedMPH,Gust SpeedMPH,PrecipitationIn,Events,Conditions,WindDirDegrees,DateUTC
12:15 AM,43.0,28.9,58,29.93,10.0,SW,3.5,-,N/A,,Clear,230,2013-01-20 05:15:00
12:35 AM,42.1,28.9,60,29.92,10.0,South,3.5,-,N/A,,Clear,190,2013-01-20 05:35:00
12:55 AM,41.9,29.1,61,29.90,10.0,South,3.5,-,N/A,,Clear,180,2013-01-20 05:55:00
1:15 AM,41.4,29.1,62,29.88,10.0,Calm,Calm,-,N/A,,Clear,0,2013-01-20 06:15:00
1:35 AM,40.6,29.1,64,29.88,10.0,Calm,Calm,-,N/A,,Clear,0,2013-01-20 06:35:00
2:15 AM,39.9,29.3,66,29.87,10.0,Calm,Calm,-,N/A,,Clear,0,2013-01-20 07:15:00
2:35 AM,39.7,29.3,66,29.87,10.0,Calm,Calm,-,N/A,,Clear,0,2013-01-20 07:35:00
2:55 AM,39.6,29.3,67,29.86,10.0,Calm,Calm,-,N/A,,Clear,0,2013-01-20 07:55:00
3:15 AM,39.4,29.3,67,29.85,10.0,Calm,Calm,-,N/A,,Clear,0,2013-01-20 08:15:00
3:35 AM,39.2,29.5,68,29.85,10.0,Calm,Calm,-,N/A,,Clear,0,2013-01-20 08:35:00
3:55 AM,39.4,29.7,68,29.84,10.0,Calm,Calm,-,N/A,,Clear,0,2013-01-20 08:55:00
4:15 AM,39.2,29.7,69,29.83,10.0,Calm,Calm,-,N/A,,Clear,0,2013-01-20 09:15:00
4:35 AM,39.6,29.8,68,29.81,10.0,Calm,Calm,-,N/A,,Clear,0,2013-01-20 09:35:00
4:55 AM,39.6,29.8,68,29.80,10.0,Calm,Calm,-,N/A,,Clear,0,2013-01-20 09:55:00
5:15 AM,39.6,29.8,68,29.79,10.0,South,3.5,-,N/A,,Clear,180,2013-01-20 10:15:00
5:35 AM,39.4,29.8,69,29.78,10.0,South,3.5,-,N/A,,Clear,190,2013-01-20 10:35:00
5:55 AM,39.4,29.8,69,29.78,10.0,Calm,Calm,-,N/A,,Clear,0,2013-01-20 10:55:00
6:15 AM,40.1,29.8,67,29.77,10.0,Calm,Calm,-,N/A,,Clear,0,2013-01-20 11:15:00
6:35 AM,40.3,29.8,66,29.77,10.0,Calm,Calm,-,N/A,,Clear,0,2013-01-20 11:35:00
7:15 AM,41.9,29.3,61,29.76,10.0,SW,5.8,-,N/A,,Clear,230,2013-01-20 12:15:00
7:35 AM,41.9,29.3,61,29.75,10.0,SW,3.5,-,N/A,,Clear,230,2013-01-20 12:35:00
7:55 AM,42.6,29.3,59,29.75,10.0,WSW,5.8,-,N/A,,Clear,250,2013-01-20 12:55:00
8:15 AM,43.7,29.3,57,29.75,10.0,West,6.9,-,N/A,,Clear,260,2013-01-20 13:15:00
8:35 AM,44.6,29.3,55,29.75,10.0,WSW,9.2,-,N/A,,Clear,250,2013-01-20 13:35:00
8:55 AM,45.7,29.3,53,29.76,10.0,WSW,12.7,16.1,N/A,,Clear,250,2013-01-20 13:55:00
9:15 AM,47.1,28.9,49,29.77,10.0,WSW,9.2,17.3,N/A,,Clear,250,2013-01-20 14:15:00
9:35 AM,48.6,28.8,46,29.76,10.0,WSW,13.8,21.9,N/A,,Clear,240,2013-01-20 14:35:00
9:55 AM,50.0,28.4,43,29.76,10.0,WSW,16.1,21.9,N/A,,Clear,250,2013-01-20 14:55:00
10:15 AM,51.4,28.4,41,29.75,10.0,WSW,12.7,23.0,N/A,,Clear,240,2013-01-20 15:15:00
10:35 AM,52.9,28.6,39,29.75,10.0,WSW,11.5,19.6,N/A,,Clear,240,2013-01-20 15:35:00
10:55 AM,54.0,28.8,38,29.74,10.0,WSW,11.5,19.6,N/A,,Clear,250,2013-01-20 15:55:00
11:15 AM,55.2,28.9,37,29.74,10.0,West,16.1,27.6,N/A,,Clear,260,2013-01-20 16:15:00
11:35 AM,55.0,28.8,37,29.73,10.0,West,24.2,31.1,N/A,,Clear,260,2013-01-20 16:35:00
11:55 AM,54.7,29.1,38,29.72,10.0,West,25.3,33.4,N/A,,Clear,260,2013-01-20 16:55:00
12:15 PM,55.8,29.3,36,29.71,10.0,West,23.0,31.1,N/A,,Clear,260,2013-01-20 17:15:00
12:35 PM,55.8,28.9,36,29.70,10.0,West,23.0,36.8,N/A,,Scattered Clouds,270,2013-01-20 17:35:00
12:55 PM,56.7,27.5,33,29.70,10.0,West,28.8,35.7,N/A,,Scattered Clouds,280,2013-01-20 17:55:00
1:15 PM,55.8,25.3,31,29.71,10.0,West,17.3,31.1,N/A,,Scattered Clouds,270,2013-01-20 18:15:00
1:35 PM,54.9,21.4,27,29.72,10.0,West,21.9,40.3,N/A,,Clear,270,2013-01-20 18:35:00
1:55 PM,54.9,20.3,26,29.72,10.0,West,18.4,27.6,N/A,,Clear,260,2013-01-20 18:55:00
2:15 PM,55.4,21.2,26,29.72,10.0,West,17.3,29.9,N/A,,Clear,280,2013-01-20 19:15:00
2:35 PM,55.2,17.1,22,29.73,10.0,West,28.8,38.0,N/A,,Clear,280,2013-01-20 19:35:00
2:55 PM,54.0,15.6,22,29.75,10.0,West,24.2,38.0,N/A,,Clear,270,2013-01-20 19:55:00
3:15 PM,54.1,18.3,25,29.77,10.0,West,24.2,31.1,N/A,,Clear,280,2013-01-20 20:15:00
3:35 PM,53.4,20.1,27,29.78,10.0,WNW,20.7,28.8,N/A,,Clear,290,2013-01-20 20:35:00
3:55 PM,52.2,20.1,28,29.78,10.0,WNW,21.9,29.9,N/A,,Clear,290,2013-01-20 20:55:00
4:15 PM,51.4,18.0,27,29.80,10.0,WNW,20.7,28.8,N/A,,Clear,290,2013-01-20 21:15:00
4:35 PM,50.4,16.2,26,29.81,10.0,West,21.9,27.6,N/A,,Clear,280,2013-01-20 21:35:00
4:55 PM,48.9,16.0,27,29.83,10.0,West,23.0,28.8,N/A,,Clear,280,2013-01-20 21:55:00
5:15 PM,47.7,15.8,28,29.85,10.0,WNW,28.8,34.5,N/A,,Clear,290,2013-01-20 22:15:00
5:35 PM,46.4,14.4,28,29.86,10.0,West,20.7,34.5,N/A,,Clear,280,2013-01-20 22:35:00
5:55 PM,45.5,14.2,28,29.88,10.0,WNW,19.6,26.5,N/A,,Clear,290,2013-01-20 22:55:00
6:15 PM,44.6,15.1,30,29.89,10.0,WNW,18.4,31.1,N/A,,Clear,290,2013-01-20 23:15:00
6:35 PM,43.7,14.9,31,29.91,10.0,WNW,23.0,26.5,N/A,,Clear,290,2013-01-20 23:35:00
6:55 PM,42.4,14.9,33,29.91,10.0,WNW,17.3,27.6,N/A,,Clear,290,2013-01-20 23:55:00
7:15 PM,41.9,14.7,33,29.93,10.0,WNW,18.4,26.5,N/A,,Clear,290,2013-01-21 00:15:00
7:35 PM,41.0,14.9,35,29.95,10.0,West,16.1,24.2,N/A,,Clear,280,2013-01-21 00:35:00
7:55 PM,40.1,14.4,35,29.96,10.0,WNW,18.4,25.3,N/A,,Clear,290,2013-01-21 00:55:00
8:15 PM,39.2,13.1,34,29.97,10.0,WNW,13.8,21.9,N/A,,Clear,300,2013-01-21 01:15:00
8:35 PM,38.3,13.3,36,29.98,10.0,WNW,19.6,25.3,N/A,,Clear,290,2013-01-21 01:35:00
8:55 PM,37.6,13.1,37,29.99,10.0,WNW,15.0,20.7,N/A,,Clear,300,2013-01-21 01:55:00
9:15 PM,37.0,13.1,37,29.99,10.0,WNW,15.0,21.9,N/A,,Clear,300,2013-01-21 02:15:00
9:35 PM,36.5,13.3,39,30.00,10.0,WNW,12.7,19.6,N/A,,Clear,290,2013-01-21 02:35:00
9:55 PM,35.6,12.9,39,30.01,10.0,WNW,11.5,-,N/A,,Clear,290,2013-01-21 02:55:00
10:15 PM,35.1,12.9,40,30.02,10.0,NW,6.9,-,N/A,,Clear,320,2013-01-21 03:15:00
10:55 PM,33.6,12.9,43,30.03,10.0,NW,12.7,19.6,N/A,,Clear,310,2013-01-21 03:55:00
11:15 PM,32.7,13.3,45,30.04,10.0,NNW,4.6,-,N/A,,Clear,330,2013-01-21 04:15:00
11:35 PM,32.2,12.7,45,30.05,10.0,NNW,9.2,-,N/A,,Clear,330,2013-01-21 04:35:00
11:55 PM,32.0,12.4,44,30.06,10.0,WNW,11.5,20.7,N/A,,Clear,300,2013-01-21 04:55:00